Location: Ithaca
(42.4410°N, 76.4970°W)
Time: 23:50:10
(UTC-04:00)

ISS - Visible Passes

Search period start: 16 April 2014 00:00
Search period end: 26 April 2014 00:00
Orbit: 414 x 419 km, 51.6° (Epoch: 17 April)

Date Brightness Start Highest point End Pass type
(mag) Time Alt. Az. Time Alt. Az. Time Alt. Az.
16 Apr -1.3 21:29:17 10° NW 21:32:01 22° NNE 21:33:13 19° NE visible
16 Apr 0.0 23:05:46 10° NW 23:06:08 13° NW 23:06:08 13° NW visible
17 Apr -1.0 20:41:02 10° NW 20:43:33 19° N 20:46:04 10° ENE visible
17 Apr -1.6 22:17:32 10° NW 22:19:43 35° NNW 22:19:43 35° NNW visible
18 Apr -2.2 21:29:18 10° NW 21:32:28 37° NNE 21:33:16 31° ENE visible
18 Apr 0.1 23:06:08 10° WNW 23:06:11 10° WNW 23:06:11 10° WNW visible
19 Apr -1.7 20:41:03 10° NW 20:43:59 27° NNE 20:46:49 11° E visible
19 Apr -1.7 22:17:37 10° WNW 22:19:44 34° W 22:19:44 34° W visible
20 Apr -3.3 21:29:11 10° NW 21:32:33 84° NE 21:33:16 53° ESE visible
21 Apr -2.8 20:40:48 10° NW 20:44:06 52° NNE 20:46:49 14° ESE visible
21 Apr -1.0 22:18:01 10° W 22:19:43 19° WSW 22:19:43 19° WSW visible
22 Apr -2.2 21:29:11 10° WNW 21:32:17 35° SW 21:33:17 28° S visible
23 Apr -3.0 20:40:31 10° WNW 20:43:51 62° SW 20:46:52 12° SE visible
24 Apr -0.6 21:29:56 10° W 21:31:38 13° SW 21:33:19 10° SSW visible
25 Apr -1.2 20:40:32 10° W 20:43:13 22° SW 20:45:54 10° S visible
